This is the latest recevied weather packets stored in our database for station/object N5SRF. If no packets are shown the sender has not sent any weather packets the latest 10 day(s).
| Time | Temp. | Humidity | Pressure | Rain* | Wind** | Luminosity | Snow |
|---|---|---|---|---|---|---|---|
| 1787912668 | 26.11° C | 90% | 1020.4 hPa | 0 mm | - | 0 W/m² | - |
| 1787912367 | 26.11° C | 88% | 1020.3 hPa | 0 mm | - | 0 W/m² | - |
| 1787912067 | 26.11° C | 88% | 1020 hPa | 0 mm | - | 0 W/m² | - |
| 1787911762 | 26.11° C | 88% | 1020.2 hPa | 0 mm | - | 0 W/m² | - |
| 1787911456 | 26.11° C | 87% | 1020.1 hPa | 0 mm | - | 0 W/m² | - |
| 1787911154 | 25.56° C | 86% | 1020.1 hPa | 0 mm | - | 0 W/m² | - |
| 1787910852 | 25.56° C | 85% | 1019.8 hPa | 0 mm | - | 0 W/m² | - |
| 1787910548 | 25.56° C | 85% | 1019.8 hPa | 0 mm | - | 0 W/m² | - |
| 1787910243 | 25.56° C | 85% | 1019.8 hPa | 0 mm | - | 0 W/m² | - |
| 1787909942 | 25.56° C | 84% | 1019.8 hPa | 0 mm | - | 0 W/m² | - |
| 1787909640 | 25.56° C | 83% | 1019.8 hPa | 0 mm | - | 0 W/m² | - |
| 1787909335 | 25.56° C | 83% | 1019.7 hPa | 0 mm | - | 0 W/m² | - |
| 1787909030 | 25.56° C | 83% | 1020 hPa | 0 mm | - | 0 W/m² | - |
| 1787908730 | 25.56° C | 87% | 1019.9 hPa | 0 mm | - | 0 W/m² | - |
| 1787908425 | 25.56° C | 92% | 1019.9 hPa | 0 mm | - | 0 W/m² | - |
| 1787908124 | 26.11° C | 97% | 1020 hPa | 0 mm | - | 0 W/m² | - |
| 1787907825 | 26.11° C | 98% | 1020 hPa | 0 mm | - | 0 W/m² | - |
| 1787907521 | 26.11° C | 98% | 1020 hPa | 0 mm | - | 0 W/m² | - |
| 1787907220 | 25.56° C | 98% | 1019.9 hPa | 0 mm | - | 0 W/m² | - |
| 1787906916 | 25.56° C | 98% | 1019.8 hPa | 0 mm | - | 0 W/m² | - |
| 1787906612 | 25.56° C | 98% | 1019.8 hPa | 0 mm | - | 0 W/m² | - |
| 1787906312 | 25.56° C | 98% | 1019.6 hPa | 0 mm | - | 0 W/m² | - |
| 1787906007 | 25.56° C | 98% | 1020 hPa | 0 mm | - | 0 W/m² | - |
| 1787905702 | 25.56° C | 98% | 1019.7 hPa | 0 mm | - | 0 W/m² | - |
| 1787905399 | 25.56° C | 98% | 1019.7 hPa | 0 mm | - | 0 W/m² | - |
* Rain latest hour (hover to see other rain measurements)
** Current wind speed in m/s (hover to see current wind gust speed)